Lapse_Rate
0.6 0.2 1.3 1.9 2.1 2.4 2.9 3.0 3.1 3.6 4.0 4.0 3.9 3.8 3.7 3.9 3.8 3.6 4.1 4.6 5.1 5.5 5.3 5.0 5.3 5.8 6.3 6.3 6.0 6.2 6.4 7.0 6.2 6.0 6.3 6.7 6.8 6.4 5.8 5.4 5.4 5.5 6.0
0.2 0.2 1.2 1.9 2.1 2.4 2.8 3.0 3.0 3.3 4.1 4.1 4.0 3.9 3.9 3.8 4.0 4.1 4.1 4.4 5.1 5.8 5.9 5.5 5.8 6.1 6.1 5.8 6.1 6.1 6.2 6.0 6.4 6.3 6.3 6.8 6.5 6.2 5.8 5.4 5.2 5.4 5.7
-0.2 0.0 0.2 1.4 2.1 2.4 2.6 2.9 3.1 3.3 3.9 4.4 4.2 4.2 4.2 4.1 4.3 4.5 4.7 4.9 5.1 5.7 5.7 5.8 6.1 6.1 6.0 5.7 5.6 5.6 5.7 6.1 6.2 6.5 6.5 7.0 6.9 6.2 6.0 5.7 5.7 5.9 6.0
-0.4 0.1 0.2 1.3 2.2 2.5 2.7 3.0 3.4 3.8 3.6 3.9 4.0 4.1 4.4 4.5 4.7 5.1 5.1 5.8 5.8 5.7 5.8 6.2 6.3 6.0 5.5 5.8 5.4 5.0 5.2 5.1 5.2 6.0 6.2 7.2 6.8 6.8 6.3 6.4 6.4 6.3 6.2
-0.3 0.3 0.5 1.0 2.0 2.7 2.8 3.1 3.4 3.8 3.8 3.7 3.6 3.8 4.6 4.9 5.0 5.1 5.2 6.0 6.8 6.7 6.5 7.0 6.4 5.6 4.9 5.0 4.8 4.9 4.6 4.8 5.0 4.9 5.5 5.8 7.1 7.0 6.9 6.7 6.8 6.4 6.3
-0.3 -0.2 0.1 0.4 1.3 3.0 3.3 3.3 3.6 3.5 3.4 3.6 3.9 4.3 4.7 5.0 5.3 5.3 5.7 5.1 6.7 7.1 6.8 6.8 6.1 5.0 4.8 4.8 4.9 4.5 4.5 4.6 4.7 4.7 5.2 6.3 5.9 6.8 6.2 5.8 5.6 5.9 6.1
-0.6 -0.6 -0.3 0.3 1.0 2.3 3.7 4.0 3.9 3.5 3.4 3.5 3.9 4.3 4.7 5.4 5.3 5.3 5.2 5.9 5.8 6.9 6.5 6.4 5.5 5.0 4.8 4.9 4.7 4.5 4.6 4.5 4.4 4.4 4.8 5.5 6.4 6.8 6.2 5.9 5.6 5.6 6.0
-0.7 -1.2 -0.4 0.7 1.2 1.8 3.1 4.1 4.3 3.9 3.4 3.6 3.7 4.2 4.9 5.4 5.1 5.0 5.3 5.8 5.7 6.2 4.9 4.7 5.5 4.9 5.1 4.8 4.7 4.7 4.6 4.5 4.3 4.3 4.9 5.6 6.4 6.7 6.5 5.0 5.1 6.0 5.0
-0.2 -1.1 -1.2 0.1 0.9 1.9 2.8 3.4 3.4 3.3 3.5 3.5 4.0 4.3 4.4 4.4 5.0 5.4 5.9 5.4 5.8 6.0 4.4 4.2 5.2 5.2 4.7 4.8 4.6 4.7 4.6 4.6 4.4 4.7 5.3 6.0 7.0 7.0 5.6 4.8 6.4 5.6 5.1
-0.2 -0.8 -1.0 -0.5 0.2 1.2 2.0 3.4 3.3 3.5 3.6 3.4 3.0 4.0 4.1 4.1 4.3 4.7 5.6 6.2 5.8 6.5 5.3 6.0 5.4 5.6 4.4 4.6 4.5 4.8 4.8 4.6 4.6 4.8 5.3 6.0 7.4 7.7 5.1 7.1 7.2 5.4 6.9
-0.0 -1.0 -1.1 -0.5 -0.4 0.7 1.8 3.2 4.3 4.2 3.9 4.5 4.4 3.8 3.8 4.2 4.3 4.8 5.2 5.9 6.4 6.9 6.6 6.7 5.1 3.8 5.1 4.6 4.7 4.8 4.4 3.9 4.5 5.3 6.0 6.5 7.8 8.2 6.6 7.1 6.2 5.9 6.2
0.1 -0.7 -1.7 -1.3 -0.7 -0.1 1.0 2.4 3.7 4.5 4.1 4.3 4.5 4.2 3.5 3.2 3.0 3.6 4.8 5.0 6.1 7.0 7.1 6.4 4.4 5.1 5.4 5.0 4.9 4.7 4.0 4.2 4.5 5.0 6.1 7.4 8.3 8.1 7.9 7.5 6.3 6.8 6.4
-0.3 -0.7 -2.1 -2.0 -0.9 -0.2 1.4 1.7 2.5 4.3 4.7 4.3 4.6 3.7 3.1 3.4 3.5 3.5 3.2 4.2 5.4 7.1 6.6 6.4 4.9 5.0 4.8 4.5 4.6 4.1 4.2 4.2 4.5 5.6 6.9 7.9 8.5 8.3 8.1 7.5 6.3 7.6 6.8
-1.6 -1.2 -1.7 -1.9 -0.9 -0.6 1.2 1.6 1.9 2.8 3.5 4.1 3.7 3.0 3.1 3.0 2.6 3.4 3.7 4.1 4.9 5.6 6.3 5.2 5.0 4.6 4.3 4.3 3.6 3.7 4.1 3.9 4.5 5.6 6.7 7.9 7.8 8.0 7.6 6.5 6.7 7.4 5.8
-1.1 -1.5 -1.8 -1.6 -0.8 -0.5 0.3 1.6 2.1 2.0 2.4 3.2 3.5 3.0 3.3 3.3 3.3 3.8 4.0 4.0 4.6 5.0 5.3 4.3 4.0 5.0 4.2 4.0 4.3 4.4 4.4 4.2 4.5 5.3 6.9 8.5 8.2 7.7 6.9 7.5 6.7 7.3 5.7
0.0 -1.4 -1.5 -1.4 -0.6 -0.0 0.6 1.6 2.4 3.2 2.7 3.3 3.6 3.5 3.3 3.4 4.0 4.4 4.3 4.5 4.6 4.3 4.7 4.1 4.4 4.7 4.6 4.4 3.8 4.0 3.6 3.8 4.6 5.7 6.7 7.8 7.9 7.8 7.9 8.1 7.9 6.6 5.1
-1.1 -0.4 -1.4 -1.5 -1.2 0.3 1.2 1.3 2.2 2.8 3.0 3.4 3.4 3.5 3.4 3.6 3.9 4.6 4.5 4.5 4.5 4.2 4.7 3.9 3.8 4.3 4.2 4.4 3.2 3.2 3.6 3.6 4.5 4.8 6.2 7.0 7.6 8.1 7.9 7.5 7.3 5.8 5.0
-0.5 -2.1 -1.3 -1.0 -1.2 -0.0 0.9 1.3 1.8 2.7 3.5 3.4 3.4 3.5 3.8 4.0 4.2 4.4 4.4 4.7 4.6 3.8 4.3 3.6 3.6 4.3 4.1 3.4 3.0 3.0 3.6 3.3 3.6 4.5 5.0 5.5 6.4 7.2 7.6 7.5 6.6 5.5 5.0
-0.0 -1.7 -1.8 -1.7 -1.4 -0.7 -0.6 1.1 2.0 3.0 3.3 3.6 3.7 3.4 4.0 4.2 3.8 4.2 4.7 4.2 4.3 4.0 4.1 3.8 4.2 4.0 3.7 3.6 3.2 2.4 2.6 2.5 3.9 4.4 3.9 4.6 5.1 5.4 5.6 6.8 5.5 5.1 5.3
-0.7 -2.0 -1.5 -1.7 -1.4 -1.0 -0.5 0.6 1.6 2.6 3.8 4.1 4.1 3.9 4.5 4.4 3.6 3.7 3.5 3.2 3.4 3.8 3.8 4.0 3.7 4.6 4.2 3.7 4.4 3.2 2.1 3.2 3.4 3.2 3.2 4.2 4.1 4.6 4.8 4.8 4.8 4.7 4.7
-2.4 -2.2 -1.8 -1.4 -1.6 -0.3 0.5 1.4 2.1 2.8 4.5 4.8 4.6 4.0 4.1 4.5 4.0 3.6 3.4 2.6 3.4 4.1 4.5 4.7 3.8 4.1 4.4 4.3 3.4 3.4 3.2 3.3 3.4 3.6 3.8 3.7 3.9 3.6 3.9 4.0 3.9 3.8 4.0
-2.0 -1.8 -0.8 -1.1 -0.8 -0.1 0.9 1.2 1.6 2.1 3.7 4.3 4.3 4.4 4.5 4.6 4.0 4.1 3.6 3.2 3.3 4.3 4.4 4.3 4.4 4.9 4.7 4.4 4.8 3.9 5.6 5.5 4.7 4.2 3.6 3.5 2.8 3.2 3.8 3.3 3.4 3.2 3.6
-2.5 -1.5 -1.6 -1.0 -0.2 0.2 0.6 0.5 0.5 1.1 2.3 3.7 4.2 4.4 4.6 5.0 4.8 4.2 3.6 3.1 3.4 3.6 4.2 4.8 4.6 5.8 5.1 4.9 5.1 4.1 5.2 5.5 4.4 4.2 3.1 3.0 3.1 2.3 3.3 2.9 2.5 2.8 3.1
-2.6 -0.3 -1.0 0.4 0.2 0.4 -0.1 0.5 1.3 1.4 2.0 2.6 4.5 4.2 4.0 4.6 4.7 4.2 3.8 3.0 3.1 4.4 5.5 6.1 5.8 6.3 5.5 5.0 5.4 3.9 3.3 3.1 4.7 4.0 3.4 3.0 2.9 3.1 2.5 2.2 2.3 2.4 2.6
-0.5 -0.1 -0.5 1.7 1.7 0.7 0.1 1.0 1.5 3.0 3.1 2.3 3.2 4.0 4.1 3.4 4.4 4.3 3.8 3.0 2.9 4.6 5.9 5.5 6.0 5.5 5.7 5.1 5.2 3.9 3.3 2.1 3.2 3.6 3.6 3.0 2.9 2.8 2.5 2.4 2.6 2.3 2.4
0.3 -0.2 1.8 2.0 1.4 1.3 0.9 1.1 1.1 1.7 2.2 4.2 4.2 4.4 4.3 4.2 4.4 4.9 4.3 3.7 3.6 5.0 6.2 5.9 5.4 5.7 4.6 5.1 4.3 4.0 4.0 4.6 3.8 3.7 3.3 2.5 2.5 1.4 1.9 2.0 2.1 2.3 2.3
Wind_Speed
5 9 15 16 15 15 11 12 12 13 16 22 25 26 25 25 23 22 20 18 18 20 21 21 21 22 23 24 23 22 23 23 24 24 24 23 23 24 24 24 22 22 24
9 12 17 17 17 17 16 13 13 14 16 20 24 25 26 26 25 24 21 20 19 19 23 24 23 23 24 25 23 22 21 22 23 22 25 23 22 22 23 23 22 23 24
8 12 14 16 19 20 20 18 16 17 18 19 22 24 25 25 25 25 24 23 21 22 23 24 24 24 23 22 22 23 23 21 22 23 22 18 19 23 23 22 23 25 25
10 13 13 17 19 20 20 19 17 17 20 21 21 23 23 23 22 20 21 20 23 23 23 24 24 24 24 24 24 25 23 23 22 21 18 19 20 23 23 22 23 25 24
9 14 14 17 17 18 20 20 20 19 19 21 23 23 22 22 23 22 23 19 17 18 22 22 23 24 22 23 24 24 24 22 20 20 16 15 18 21 22 21 21 21 21
9 12 16 18 16 14 16 18 19 20 19 19 19 21 21 21 22 20 21 28 19 18 19 20 23 26 23 24 23 22 22 22 23 19 17 18 17 22 20 20 21 21 19
8 9 13 18 17 17 16 16 18 20 19 19 19 20 21 20 20 22 22 20 26 20 21 19 23 25 24 23 22 21 22 22 20 15 15 17 19 20 20 18 19 18 19
9 7 11 17 17 18 19 17 17 19 19 19 18 18 19 19 20 20 21 23 24 26 27 24 24 27 24 25 22 21 21 20 18 16 16 16 21 20 19 20 19 18 20
6 6 7 11 14 17 19 20 18 22 20 19 18 17 17 17 16 17 19 18 19 20 26 30 28 26 28 24 23 21 21 19 17 15 16 15 21 22 21 20 18 20 19
5 6 6 7 11 13 14 22 21 23 23 22 20 18 16 13 13 13 16 19 21 20 24 28 27 25 29 25 24 23 21 19 16 14 14 17 21 20 22 21 20 20 19
5 6 6 6 6 10 12 13 18 24 22 22 21 20 17 13 12 11 12 16 22 24 27 31 25 27 25 24 24 21 19 16 16 14 13 22 21 21 22 20 21 20 19
13 11 7 7 7 6 6 11 12 17 18 18 15 14 11 11 10 11 14 20 21 27 29 30 31 26 22 18 19 19 15 16 15 14 14 21 22 22 22 21 21 20 20
11 9 9 7 6 6 6 6 7 12 13 13 15 12 11 9 10 11 11 13 15 26 21 23 26 23 18 15 14 14 16 16 15 13 15 20 20 21 22 20 20 19 19
10 12 8 7 6 6 6 6 6 7 9 7 12 15 11 5 5 5 8 11 11 17 15 17 14 19 20 17 15 14 13 14 16 14 16 22 22 21 21 21 20 19 19
11 11 11 9 9 7 7 7 6 7 6 9 11 12 12 6 6 6 6 7 8 12 15 13 14 14 15 16 15 14 11 12 14 15 16 18 22 21 21 21 20 19 18
13 12 11 12 10 10 8 9 8 5 7 8 9 12 14 11 6 6 4 5 4 10 15 15 12 10 9 15 10 12 11 13 12 14 15 18 22 21 20 20 20 20 19
15 11 14 13 10 13 12 9 7 5 6 6 7 13 13 13 10 6 6 7 7 11 13 13 13 13 8 11 9 9 9 12 12 13 13 15 18 19 18 18 18 18 18
12 16 14 11 12 11 11 7 8 5 5 5 8 11 16 15 14 7 6 6 13 14 13 8 9 8 8 8 6 5 6 9 10 13 16 17 17 16 17 18 16 16 17
17 14 15 15 14 11 8 7 6 8 5 6 8 9 14 14 14 8 6 7 16 8 9 10 7 10 8 7 7 5 4 4 8 11 12 15 16 16 16 18 18 17 15
13 13 14 12 13 10 6 5 3 4 4 5 6 7 13 12 13 8 5 7 11 12 11 10 11 7 9 9 8 5 4 3 6 6 8 12 14 17 17 17 17 16 16
8 13 16 16 13 10 7 7 4 5 6 6 7 9 12 11 15 9 7 7 8 10 11 13 9 12 7 9 8 5 4 3 3 2 6 7 8 12 16 17 17 18 17
12 12 15 16 15 11 9 6 3 3 2 2 2 5 10 11 14 11 11 10 11 7 10 12 13 8 5 11 7 5 3 1 0 2 2 3 5 9 9 14 16 17 18
12 16 18 16 17 13 11 6 3 4 1 2 2 2 5 10 12 13 13 10 9 11 10 11 13 12 10 8 14 5 3 3 3 3 5 4 4 4 9 13 16 18 20
13 13 14 13 16 13 13 10 12 6 5 3 3 2 3 5 9 13 13 13 12 10 11 13 12 11 13 11 9 1 3 5 3 3 2 5 5 7 6 9 12 16 18
10 12 12 13 12 13 13 12 10 10 4 3 3 5 5 3 4 15 13 15 15 10 13 15 13 10 12 9 8 3 2 3 2 3 2 3 3 5 6 10 13 14 17
10 12 13 14 12 11 14 14 13 11 9 6 5 5 4 3 5 7 11 15 15 13 11 13 11 10 10 10 5 4 4 3 3 3 2 2 3 3 6 8 10 14 16
Wind_Direction
208 164 159 154 144 137 132 127 118 113 122 135 139 140 139 138 138 137 134 133 135 139 138 133 126 128 129 127 125 125 124 123 116 113 112 111 108 105 103 100 97 97 96
141 157 162 158 149 144 141 133 129 128 131 136 139 140 143 145 144 141 138 134 133 132 134 132 127 128 129 129 129 126 125 120 119 118 110 110 110 110 104 102 101 100 99
142 162 169 165 159 155 149 147 146 141 139 138 142 144 146 147 148 148 146 140 136 136 138 137 135 134 135 134 130 124 122 120 116 116 112 110 115 113 109 105 104 104 102
148 169 174 174 167 159 153 151 154 149 145 145 146 147 149 149 146 146 140 140 136 139 141 142 138 137 137 135 123 121 120 118 116 113 112 119 119 118 114 108 106 104 105
155 168 177 179 174 166 157 156 158 157 151 153 152 150 152 150 149 147 144 140 144 147 147 147 142 137 133 123 123 122 121 117 111 106 108 117 120 120 115 111 108 105 107
166 169 176 178 173 170 163 161 160 157 159 156 153 152 152 154 155 151 155 143 153 160 156 154 148 135 131 128 127 124 120 117 113 116 118 122 116 121 119 115 109 106 101
169 169 168 177 172 170 172 170 164 159 160 161 157 157 157 160 159 158 149 159 156 166 154 151 147 136 133 132 128 125 121 117 118 118 117 116 122 123 116 110 107 101 103
164 161 168 179 176 173 173 174 172 164 155 152 152 158 163 162 159 162 171 162 164 169 153 148 153 142 139 134 129 126 121 120 121 120 118 122 129 125 126 117 111 113 109
147 148 162 172 175 182 178 176 169 163 157 149 148 152 155 153 163 170 172 165 176 182 156 154 157 151 138 135 131 128 126 125 123 125 124 130 133 136 130 125 127 121 121
155 162 171 175 171 180 182 184 171 166 168 162 160 157 153 156 155 153 168 180 193 181 159 159 146 145 133 138 134 135 129 128 121 122 131 137 135 136 131 133 132 127 131
186 186 176 181 184 182 181 176 171 173 173 174 173 172 171 169 173 173 187 201 188 180 171 165 140 132 139 136 135 132 126 127 125 126 132 141 143 144 136 137 133 134 135
197 197 187 184 188 182 170 161 163 178 176 181 182 179 174 168 176 180 201 215 209 187 186 156 137 136 137 140 137 132 130 132 133 135 141 145 149 144 140 142 138 141 136
201 205 196 181 184 173 180 170 167 188 172 180 180 175 179 173 186 188 206 220 217 195 188 158 144 144 146 140 141 135 137 135 135 137 155 149 156 143 142 143 143 142 136
195 208 191 176 178 179 175 186 177 181 171 170 179 172 166 170 187 171 200 207 198 197 181 143 149 145 140 141 142 138 143 139 145 147 160 165 149 149 150 149 149 149 145
209 203 195 178 181 180 167 189 184 188 175 177 172 163 164 174 184 179 188 180 186 162 150 137 140 140 134 135 142 140 136 137 140 149 161 168 146 154 155 157 154 154 149
208 203 187 190 183 177 175 191 193 193 174 177 170 171 176 174 176 180 165 158 183 136 131 135 141 142 142 141 133 136 144 137 140 153 156 162 157 161 163 161 162 158 154
212 197 192 185 174 183 184 184 183 191 180 179 177 175 183 179 178 168 164 162 162 129 124 134 130 136 131 139 135 127 139 136 148 150 154 157 164 167 166 165 166 162 158
201 190 184 184 177 179 179 178 183 186 188 180 180 184 192 189 180 173 163 172 170 155 141 145 139 145 138 137 136 145 140 135 150 157 155 156 162 167 169 169 167 165 167
204 186 181 180 176 174 159 168 173 184 188 190 181 186 187 180 173 172 171 167 171 156 148 144 142 142 141 139 142 119 145 120 165 159 154 161 168 172 172 176 173 171 176
201 183 174 176 170 159 148 140 155 174 192 193 191 190 173 172 160 154 146 148 167 161 143 143 139 146 150 148 138 115 81 137 147 153 158 166 175 176 177 176 175 178 183
169 171 175 172 167 158 167 172 180 194 203 198 193 179 176 177 163 155 147 138 148 142 132 143 145 146 138 141 119 87 61 73 98 148 164 170 186 188 189 188 189 189 192
180 184 178 178 167 168 172 171 155 161 196 198 155 169 176 179 168 160 160 164 143 131 135 148 155 159 139 159 153 127 137 73 303 199 172 194 198 182 205 199 200 201 204
189 194 185 177 166 167 160 143 107 91 117 168 162 175 178 182 179 168 162 159 155 155 158 165 169 172 158 176 162 138 141 179 140 185 216 195 196 194 204 208 212 212 214
204 190 177 173 166 164 156 165 181 191 177 179 157 151 161 168 180 172 162 152 162 164 173 185 179 175 161 168 172 178 107 135 181 150 224 209 192 211 206 212 214 218 219
180 180 165 164 173 165 170 177 182 195 186 138 153 176 178 172 196 173 167 165 170 179 185 178 178 173 172 165 167 152 125 78 129 126 184 185 199 206 208 208 215 218 220
172 162 171 166 172 176 180 181 180 177 161 160 162 174 162 168 182 178 183 171 172 180 186 176 169 171 163 165 160 144 133 142 173 138 134 170 199 218 202 203 212 222 223